Temperature
16 16 17 17 17 17 17 17 17 17 17 17 17 17 17 17 17 18 18 18 18 18 18 18 18 18 18 18 18 18 18 18 18 18 18 18 18 18 18 18 18 17 18
16 16 17 17 17 17 17 17 17 17 17 17 17 17 17 17 17 17 18 18 18 18 18 18 17 18 18 18 18 18 18 18 18 18 18 18 18 18 18 18 18 17 18
16 16 16 17 17 16 16 17 17 17 17 17 17 17 17 17 17 17 17 17 17 17 17 17 17 17 17 18 18 18 18 18 18 18 17 17 17 18 18 18 18 18 18
16 16 16 17 16 16 16 16 17 17 17 17 17 17 17 17 17 17 17 17 17 17 17 17 17 17 17 17 17 18 18 17 17 17 17 17 17 17 18 18 18 18 18
16 16 16 16 16 16 16 16 17 17 17 17 17 17 17 17 17 17 17 17 17 17 17 17 17 17 17 17 17 17 17 17 17 17 17 17 17 17 17 18 17 17 17
16 16 16 17 16 16 16 16 16 16 16 17 17 17 17 17 17 17 17 17 17 17 17 17 17 17 17 17 17 17 17 17 17 16 17 16 17 17 17 17 17 17 17
16 16 16 16 16 16 16 16 16 16 16 16 16 16 17 16 16 16 16 17 17 17 17 17 17 17 17 17 17 17 17 17 16 16 16 16 17 17 17 17 17 17 17
16 16 16 16 16 16 16 16 16 16 16 16 16 16 16 16 16 16 16 16 16 16 17 17 17 17 17 16 16 17 17 16 16 16 16 16 17 17 17 17 17 17 17
16 16 16 16 16 16 16 16 16 16 16 16 16 16 16 16 16 16 16 16 16 16 16 16 16 16 16 16 16 16 16 16 16 16 16 16 16 17 17 17 17 17 17
16 16 16 16 16 16 16 16 16 16 16 16 16 16 16 16 16 16 16 16 16 16 16 16 16 16 16 16 16 16 16 16 16 16 16 16 16 17 17 17 17 17 17
16 16 16 16 16 16 16 16 16 16 16 16 16 16 16 15 15 15 16 16 16 16 16 16 16 16 16 16 16 16 16 16 16 16 16 16 16 16 16 16 16 16 16
16 16 16 16 16 16 16 15 15 15 15 15 15 15 15 15 15 15 16 16 16 16 16 16 16 16 16 15 16 16 15 15 15 15 16 16 16 16 16 16 16 16 16
16 16 16 16 16 16 16 15 15 15 15 15 15 15 15 15 15 15 15 15 15 15 15 15 15 15 15 15 15 15 15 15 15 15 15 16 16 16 16 16 16 16 16
16 16 16 16 16 16 16 15 15 15 15 15 15 15 15 15 15 15 15 15 15 15 15 15 15 15 15 15 15 15 15 15 15 15 15 15 16 16 16 16 16 16 16
16 16 16 16 16 16 16 15 15 15 15 15 15 15 15 15 15 15 15 15 15 15 15 15 15 15 15 15 15 15 15 15 15 15 15 15 15 15 15 15 15 16 16
16 16 16 16 16 16 16 15 15 15 15 15 15 15 15 15 14 14 14 14 14 14 14 14 14 14 15 14 14 14 14 15 15 15 15 15 15 15 15 15 15 15 15
16 16 16 15 16 16 16 15 15 15 15 15 15 15 15 14 14 14 14 14 14 14 14 14 14 14 14 14 14 14 14 14 14 14 14 14 14 15 15 15 15 15 15
16 16 16 16 15 15 15 15 15 15 15 15 15 15 14 14 14 14 14 14 14 14 14 14 14 14 14 14 14 14 14 14 14 14 14 14 14 14 14 15 15 15 15
16 16 16 16 15 15 15 15 15 15 15 15 15 14 14 14 14 14 14 14 14 14 14 14 14 14 14 14 14 14 13 13 14 14 14 14 14 14 14 14 15 15 15
16 16 16 15 15 15 15 15 14 14 14 14 14 14 14 14 14 14 14 14 14 14 14 14 13 13 13 13 14 13 13 13 13 13 13 13 13 14 14 14 14 14 14
16 15 15 15 15 15 15 14 14 14 14 14 14 14 14 14 14 14 14 13 13 13 13 13 13 13 13 13 13 13 13 13 13 13 13 13 13 13 13 13 13 13 14
16 15 15 15 15 14 14 14 14 14 14 14 13 13 13 14 14 14 14 13 13 13 13 13 13 13 13 13 13 13 14 14 13 13 13 13 13 13 13 13 13 13 13
16 15 15 15 14 14 14 14 14 14 13 13 13 13 13 13 13 13 13 13 13 13 13 13 13 13 13 13 13 13 14 14 13 13 12 12 13 13 13 13 13 13 13
15 15 15 15 14 14 14 14 13 13 13 13 13 13 13 13 13 13 13 13 13 13 13 13 13 12 12 12 12 12 13 13 13 13 13 12 12 12 12 12 12 12 12
15 15 15 14 14 14 14 13 13 13 12 12 12 12 12 12 12 12 12 12 12 12 12 12 12 12 12 12 12 12 12 12 12 13 13 12 12 12 12 12 12 12 12
15 15 15 14 14 14 13 13 13 12 12 12 12 12 12 12 12 12 12 12 12 12 12 12 12 12 12 12 11 11 11 12 12 12 12 12 12 12 11 11 12 12 11
Wind_Speed
4 5 6 6 6 7 6 7 8 9 9 9 8 9 9 10 9 9 9 9 10 10 10 10 10 10 10 9 9 9 8 8 8 9 8 8 7 6 6 6 5 6 8
4 5 6 6 7 7 7 8 9 9 9 9 9 9 9 9 10 10 9 9 10 10 10 11 10 10 11 11 11 10 9 8 9 8 8 8 8 7 6 6 4 6 7
4 6 7 8 8 8 8 9 9 10 9 10 10 10 10 10 10 9 9 9 10 10 10 10 10 10 11 11 11 11 10 9 9 7 5 5 8 8 7 7 6 6 6
5 6 8 8 8 9 9 9 10 10 10 10 10 10 10 10 10 9 9 10 10 10 10 11 10 11 11 11 10 10 10 9 7 3 4 5 6 9 7 6 6 6 5
6 7 9 8 8 9 9 9 9 9 9 10 10 10 10 10 10 10 11 11 11 11 11 11 11 11 10 10 10 10 9 8 5 3 5 5 5 7 6 6 6 5 5
6 7 9 8 8 9 9 10 9 9 9 9 10 10 10 10 10 10 11 11 11 11 11 11 11 11 11 10 10 9 8 5 3 5 5 5 5 6 5 6 5 5 4
6 7 9 8 8 8 9 9 9 9 9 9 9 10 10 10 10 10 10 11 11 11 11 11 11 11 11 10 10 9 7 4 4 5 4 5 7 7 6 6 5 5 4
6 6 8 8 8 8 8 8 8 8 9 9 9 9 9 10 10 10 10 10 10 10 10 10 10 11 11 11 10 8 6 3 4 5 5 6 8 7 6 6 5 5 5
6 5 6 6 7 7 8 8 8 8 8 8 8 8 9 9 10 10 10 10 10 10 10 10 10 11 11 10 9 8 7 5 4 4 5 6 7 7 6 5 5 5 5
5 5 5 5 5 5 6 8 7 7 8 7 8 8 7 7 8 8 9 10 10 10 10 10 10 10 10 10 9 7 4 2 6 5 5 7 7 6 6 5 5 5 5
4 4 4 4 5 5 5 6 5 6 6 4 6 6 3 5 6 7 10 10 9 9 10 10 10 9 8 9 8 5 2 4 6 6 6 8 7 6 6 5 5 6 6
3 3 3 3 3 4 4 4 4 4 4 3 4 4 4 5 6 6 10 9 8 8 8 9 7 5 3 5 6 2 4 5 5 5 7 8 7 7 6 6 6 6 6
3 3 3 2 2 3 2 2 2 3 3 3 3 4 4 4 4 4 4 5 5 4 5 6 4 5 5 5 4 4 5 4 4 5 7 9 7 7 7 7 6 6 6
2 2 2 2 1 2 2 2 2 2 2 2 3 3 3 3 3 3 3 3 3 3 4 3 3 5 5 5 5 4 5 4 4 5 8 9 8 7 7 7 6 6 5
2 1 2 1 1 1 1 1 1 2 2 2 2 2 3 2 2 2 3 3 3 3 3 3 3 4 4 4 4 4 4 5 5 5 6 10 9 8 7 7 6 5 5
1 1 1 1 1 1 1 1 1 1 2 1 1 2 2 2 2 2 2 2 2 2 2 2 3 3 3 4 4 4 4 4 5 4 4 6 8 7 7 7 6 5 4
0 0 1 0 1 0 1 1 1 1 1 1 1 2 2 2 1 1 1 2 2 2 2 2 3 3 3 3 4 4 4 4 4 4 4 4 4 6 7 7 7 6 5
0 1 1 1 1 1 1 1 1 1 2 2 1 1 2 2 2 2 1 1 1 2 1 1 1 2 3 3 3 3 3 3 4 4 4 4 4 4 6 7 7 6 5
0 0 1 1 1 1 1 1 1 1 2 2 2 2 2 1 1 1 1 1 1 1 1 1 1 1 2 2 2 2 3 3 3 4 4 4 4 4 4 5 5 5 5
1 1 1 2 1 2 2 2 2 2 2 2 2 2 2 2 2 1 1 0 1 1 1 1 2 1 1 1 1 2 2 2 2 3 3 4 4 4 4 4 3 4 5
2 1 1 1 1 2 1 1 1 1 1 2 2 3 2 2 2 1 0 1 1 1 1 1 1 1 1 1 1 1 1 1 3 3 3 3 3 4 4 4 4 4 4
2 2 2 2 2 2 1 0 1 1 1 2 2 2 2 2 1 1 1 1 1 1 1 2 2 1 0 0 1 1 1 1 2 2 2 2 3 3 4 4 5 4 4
3 2 2 2 2 2 2 1 2 2 2 2 1 2 2 2 2 1 1 1 1 1 1 2 2 2 1 1 1 1 1 1 1 1 2 2 3 3 3 4 4 5 4
4 3 3 3 3 2 3 2 2 1 1 1 1 1 1 2 2 1 1 0 1 0 1 1 1 1 1 1 1 1 2 1 1 1 0 1 3 3 4 3 4 5 5
4 4 3 4 4 3 3 3 2 2 1 1 1 2 1 2 2 2 1 1 0 0 0 1 1 1 1 2 1 1 1 1 2 2 1 1 1 2 3 3 3 4 5
5 5 4 4 4 3 3 2 2 2 2 2 2 2 1 1 2 2 2 1 0 0 1 1 1 1 1 1 2 1 2 2 2 2 2 2 2 1 1 2 2 3 3
Wind_Direction
31 41 54 50 55 60 64 65 70 72 70 71 75 77 78 77 78 77 77 75 75 74 73 75 82 90 92 92 93 95 97 100 106 108 109 108 108 110 109 112 128 115 105
49 58 65 58 60 67 73 73 75 74 72 72 75 76 76 76 78 77 77 78 76 75 72 71 75 85 89 90 92 95 97 96 97 99 107 113 108 108 107 107 84 90 101
64 70 77 62 62 70 77 79 79 76 73 72 72 74 75 76 78 79 79 80 78 78 75 73 75 89 89 91 93 95 94 92 91 95 110 112 108 103 104 106 104 102 103
69 70 68 64 63 69 75 78 76 73 72 73 73 74 75 76 78 78 81 83 81 80 78 76 77 91 89 92 92 93 93 90 86 95 103 87 96 97 97 101 103 100 104
75 70 72 67 71 71 71 73 73 74 75 75 75 74 75 75 76 76 77 81 79 79 80 79 79 82 86 90 90 90 89 90 93 88 79 78 81 92 95 94 89 89 95
81 75 77 69 72 69 69 70 72 75 76 75 75 73 74 74 75 76 78 80 79 79 79 78 80 78 78 81 84 84 82 82 108 85 80 85 84 90 94 94 87 82 86
84 77 83 71 69 66 66 67 70 74 75 74 74 71 71 72 72 75 78 80 78 79 78 77 79 79 78 78 79 79 75 59 75 81 78 79 77 80 89 89 87 86 90
87 83 88 84 72 66 64 67 67 70 74 72 70 69 68 69 70 73 74 79 79 79 78 78 79 79 78 77 76 74 67 26 90 79 77 76 75 76 80 84 82 82 85
86 84 84 88 90 84 69 65 66 68 70 69 68 68 70 72 71 72 73 73 75 78 79 79 80 80 79 76 72 71 65 38 65 72 75 75 78 78 76 76 76 80 78
89 83 78 78 76 79 83 73 66 67 67 70 69 67 74 86 83 75 78 74 73 73 78 78 78 79 79 77 73 70 62 59 61 63 63 73 74 74 73 73 75 77 78
85 82 80 76 72 68 72 84 85 85 73 84 90 86 83 83 81 84 70 72 74 76 77 74 75 79 84 86 75 63 41 58 63 55 59 61 62 67 70 74 77 76 77
92 85 78 72 71 69 67 79 79 79 75 63 73 78 72 69 69 74 86 77 77 80 88 82 81 91 82 85 88 78 58 56 57 59 63 59 58 63 67 71 77 77 74
91 79 67 56 66 71 77 69 70 73 67 63 65 74 75 79 88 82 90 100 96 100 93 97 100 76 70 68 58 56 50 47 48 53 59 58 58 63 65 65 70 75 73
89 73 65 58 66 73 79 79 73 75 68 64 66 70 73 71 69 75 79 77 79 78 75 80 78 79 71 69 65 60 57 50 48 50 56 58 55 59 61 60 63 67 67
99 77 57 45 54 74 78 75 90 78 67 73 58 63 65 67 72 78 80 78 74 76 83 76 77 75 70 65 60 55 53 52 47 46 58 62 54 51 50 50 54 58 60
122 92 71 63 91 101 134 127 78 78 89 77 71 55 61 62 65 66 76 79 74 74 76 77 74 72 67 63 56 50 45 47 47 45 52 69 66 52 44 43 45 50 54
126 106 74 37 77 97 90 95 72 61 67 73 73 52 61 54 54 66 65 79 78 84 87 81 80 74 71 68 60 49 46 41 41 40 41 43 61 69 55 45 41 42 39
97 88 94 92 86 85 108 124 93 83 78 68 68 66 65 75 66 64 61 69 71 78 91 98 93 76 69 61 52 43 41 44 38 36 39 43 39 40 61 57 39 37 36
166 128 109 104 102 104 104 123 113 93 79 68 61 60 45 49 63 83 63 53 80 93 98 101 93 80 70 58 55 49 38 39 36 35 36 36 40 32 35 63 55 44 39
142 128 121 112 106 111 123 120 110 90 72 62 60 63 63 48 33 58 108 100 88 107 92 97 89 80 76 58 57 51 36 35 37 36 24 28 30 28 25 25 38 66 62
127 125 112 113 110 109 114 128 115 107 85 69 53 50 71 68 44 50 51 107 109 128 122 125 121 115 89 67 104 84 77 62 42 39 25 16 29 28 28 28 23 25 55
137 135 123 113 103 102 84 101 129 110 90 76 55 51 54 66 58 60 85 116 143 142 137 132 138 144 127 234 285 276 246 158 70 40 31 26 24 33 33 28 27 25 18
148 139 128 113 106 97 95 85 92 101 94 81 55 49 43 49 51 49 84 116 132 165 159 162 175 182 206 232 321 315 299 320 5 102 41 37 28 25 27 25 23 24 21
160 147 136 121 111 99 98 93 101 92 92 50 10 37 41 50 53 41 44 100 146 141 157 188 192 217 220 224 239 308 307 334 287 268 171 42 28 29 18 19 18 20 17
154 144 136 123 116 106 99 100 103 91 81 66 42 42 41 60 52 41 32 67 123 118 174 178 191 233 229 241 246 248 244 265 272 270 269 319 348 20 17 15 23 22 16
142 137 133 127 113 104 104 105 101 96 93 81 49 33 33 60 53 45 24 9 321 260 232 214 212 222 245 243 250 247 250 253 263 265 263 275 295 326 10 25 20 20 11
Height
1529 1527 1525 1525 1524 1523 1523 1522 1522 1522 1521 1521 1521 1520 1520 1520 1519 1519 1519 1518 1518 1518 1518 1518 1517 1517 1517 1517 1518 1518 1519 1520 1521 1522 1522 1523 1524 1524 1525 1525 1526 1527 1527
1530 1528 1527 1526 1525 1525 1524 1524 1523 1523 1523 1523 1522 1522 1521 1521 1521 1521 1520 1520 1520 1520 1519 1519 1519 1519 1518 1519 1519 1519 1520 1521 1522 1523 1523 1524 1525 1525 1525 1526 1526 1527 1527
1530 1529 1528 1527 1527 1526 1525 1525 1524 1524 1524 1524 1524 1523 1523 1523 1522 1522 1522 1521 1521 1521 1521 1520 1520 1520 1520 1520 1520 1521 1522 1522 1523 1524 1524 1526 1526 1526 1526 1526 1527 1527 1528
1531 1531 1530 1528 1528 1527 1527 1526 1526 1526 1526 1525 1525 1525 1524 1524 1524 1523 1523 1523 1523 1523 1523 1522 1521 1521 1521 1521 1522 1522 1523 1524 1524 1525 1527 1527 1527 1527 1527 1527 1528 1528 1528
1533 1532 1531 1530 1529 1529 1528 1528 1528 1528 1527 1527 1527 1526 1526 1526 1525 1525 1525 1525 1525 1525 1524 1524 1524 1523 1523 1523 1524 1524 1524 1525 1525 1526 1527 1527 1527 1527 1528 1528 1528 1529 1529
1534 1534 1532 1531 1531 1530 1530 1530 1529 1529 1529 1528 1528 1528 1528 1527 1527 1527 1526 1526 1526 1526 1526 1526 1526 1526 1525 1525 1525 1526 1526 1526 1527 1528 1528 1528 1528 1528 1528 1528 1529 1529 1529
1535 1535 1534 1533 1532 1532 1532 1531 1531 1531 1530 1530 1530 1529 1529 1529 1528 1528 1528 1528 1528 1528 1528 1527 1527 1527 1527 1527 1527 1527 1527 1527 1529 1529 1529 1529 1529 1528 1529 1529 1529 1529 1529
1536 1536 1535 1534 1534 1533 1533 1533 1532 1532 1532 1531 1531 1531 1530 1530 1530 1530 1529 1529 1529 1529 1529 1529 1529 1529 1529 1529 1529 1529 1529 1529 1530 1531 1530 1530 1530 1530 1529 1529 1529 1529 1529
1537 1537 1537 1537 1536 1535 1535 1534 1534 1533 1533 1533 1532 1532 1532 1532 1531 1531 1531 1531 1530 1530 1530 1530 1530 1530 1530 1530 1530 1530 1530 1530 1531 1532 1532 1531 1531 1530 1530 1530 1530 1530 1530
1538 1538 1538 1538 1538 1537 1537 1535 1535 1535 1534 1534 1534 1533 1533 1533 1533 1533 1532 1532 1532 1531 1531 1531 1531 1531 1531 1531 1532 1532 1532 1532 1533 1533 1532 1532 1531 1531 1531 1531 1530 1530 1530
1539 1539 1539 1539 1539 1538 1538 1537 1536 1536 1535 1535 1535 1535 1535 1535 1535 1534 1534 1533 1533 1533 1533 1532 1532 1533 1533 1533 1533 1533 1533 1534 1534 1533 1533 1532 1532 1532 1531 1531 1531 1531 1531
1540 1540 1540 1540 1539 1539 1538 1538 1538 1538 1537 1537 1537 1536 1536 1536 1535 1535 1534 1534 1534 1534 1534 1534 1534 1534 1534 1535 1534 1534 1535 1535 1535 1534 1534 1533 1533 1532 1532 1532 1532 1531 1531
1541 1540 1540 1540 1540 1539 1539 1539 1539 1538 1538 1538 1538 1537 1537 1537 1537 1537 1536 1536 1536 1536 1536 1535 1536 1536 1536 1535 1535 1536 1535 1535 1535 1535 1534 1533 1533 1533 1533 1532 1532 1532 1531
1541 1541 1540 1540 1540 1540 1539 1539 1539 1539 1539 1539 1539 1539 1539 1538 1538 1538 1537 1537 1537 1537 1536 1537 1537 1537 1537 1537 1537 1536 1536 1536 1536 1535 1534 1534 1534 1533 1533 1533 1532 1532 1532
1541 1541 1540 1540 1540 1540 1539 1539 1540 1539 1539 1539 1539 1539 1539 1539 1539 1539 1539 1538 1538 1538 1538 1538 1538 1538 1537 1538 1537 1537 1537 1536 1536 1536 1535 1534 1534 1534 1533 1533 1533 1532 1532
1541 1541 1540 1540 1540 1540 1540 1539 1540 1539 1539 1539 1539 1540 1540 1540 1540 1539 1539 1539 1539 1539 1538 1539 1538 1538 1538 1538 1538 1537 1537 1537 1536 1536 1536 1535 1534 1534 1534 1533 1533 1533 1532
1541 1540 1540 1540 1540 1540 1540 1539 1539 1539 1539 1540 1539 1540 1540 1540 1540 1540 1540 1539 1539 1539 1539 1539 1539 1539 1538 1538 1538 1537 1537 1537 1536 1536 1536 1535 1535 1534 1534 1533 1533 1532 1532
1540 1540 1539 1539 1539 1539 1539 1539 1539 1539 1539 1539 1539 1539 1540 1540 1540 1540 1539 1539 1539 1539 1539 1539 1539 1539 1539 1538 1538 1538 1537 1536 1536 1536 1536 1535 1535 1535 1534 1533 1533 1532 1532
1539 1539 1539 1539 1539 1538 1538 1538 1538 1538 1538 1538 1539 1539 1539 1539 1539 1539 1539 1539 1539 1539 1539 1539 1539 1539 1539 1538 1538 1537 1537 1537 1536 1536 1536 1535 1535 1534 1534 1533 1532 1532 1531
1538 1539 1539 1538 1538 1538 1538 1538 1537 1537 1538 1538 1538 1538 1538 1538 1539 1539 1539 1539 1539 1539 1539 1539 1538 1538 1538 1538 1538 1538 1537 1537 1536 1536 1535 1535 1535 1534 1534 1533 1533 1532 1531
1537 1538 1538 1538 1538 1537 1537 1537 1537 1537 1537 1537 1537 1537 1537 1537 1537 1538 1538 1538 1538 1538 1538 1538 1538 1538 1538 1538 1538 1538 1538 1537 1537 1536 1535 1535 1535 1534 1534 1533 1533 1532 1531
1537 1537 1537 1537 1537 1537 1536 1537 1537 1536 1536 1536 1536 1536 1536 1536 1536 1537 1537 1537 1537 1537 1537 1537 1537 1538 1538 1538 1538 1538 1538 1539 1537 1536 1535 1535 1535 1534 1533 1533 1532 1531 1530
1535 1536 1536 1537 1537 1536 1536 1536 1536 1536 1535 1536 1536 1535 1535 1535 1535 1536 1536 1536 1536 1536 1536 1536 1537 1537 1537 1537 1538 1538 1538 1537 1537 1537 1536 1535 1534 1534 1533 1532 1532 1531 1530
1535 1535 1536 1536 1536 1536 1536 1535 1535 1535 1535 1535 1535 1535 1534 1534 1534 1535 1535 1535 1535 1535 1535 1535 1536 1536 1536 1537 1536 1536 1537 1537 1537 1537 1537 1535 1534 1533 1533 1532 1531 1530 1529
1533 1534 1535 1535 1535 1535 1535 1535 1535 1535 1535 1535 1534 1534 1534 1534 1534 1534 1534 1534 1534 1534 1534 1534 1534 1535 1535 1535 1536 1536 1536 1536 1536 1536 1535 1535 1534 1533 1532 1531 1530 1529 1528
1531 1532 1533 1534 1534 1534 1534 1534 1534 1534 1534 1534 1534 1533 1533 1533 1533 1533 1533 1533 1533 1533 1533 1533 1533 1533 1534 1534 1534 1534 1535 1535 1535 1535 1534 1534 1533 1533 1532 1531 1530 1528 1527